Hourly Data Report for October 02, 2017

All times are specified in Local Standard Time (LST). Add 1 hour to adjust for Daylight Saving Time where and when it is observed.

LILLOOET
BRITISH COLUMBIA

50°41'01.420" N
121°56'02.945" W
239.50 m
1114619
71999
WKF

Download Data

Hourly Data (October 2017)
Hourly Data Report for October 2, 2017
Temp Definition
°C
Dew Point Temp Definition
°C
Rel Hum Definition
%
Wind Dir Definition
10's deg

Wind Spd Definition
km/h
Visibility Definition
km
Stn Press Definition
kPa
Hmdx Definition


Wind Chill Definition


Weather Definition


TIME
00:00 10.4 5.4 71 LegendMM LegendMM   99.44     LegendNANA
01:00 11.0 4.2 63 LegendMM LegendMM   99.45     LegendNANA
02:00 11.1 2.7 56 LegendMM LegendMM   99.47     LegendNANA
03:00 11.3 2.1 53 LegendMM LegendMM   99.50     LegendNANA
04:00 11.6 1.2 49 LegendMM LegendMM   99.54     LegendNANA
05:00 11.3 0.8 48 LegendMM LegendMM   99.62     LegendNANA
06:00 11.1 0.2 47 LegendMM LegendMM   99.64     LegendNANA
07:00 10.9 0.3 48 LegendMM LegendMM   99.71     LegendNANA
08:00 11.3 0.2 46 LegendMM LegendMM   99.79     LegendNANA
09:00 10.8 -0.4 46 LegendMM LegendMM   99.83     LegendNANA
10:00 11.2 -0.8 43 LegendMM LegendMM   99.92     LegendNANA
11:00 13.8 -0.8 37 LegendMM LegendMM   99.90     LegendNANA
12:00 12.9 -1.2 38 LegendMM LegendMM   99.90     LegendNANA
13:00 14.6 -1.8 32 LegendMM LegendMM   99.89     LegendNANA
14:00 15.7 -2.0 30 LegendMM LegendMM   99.87     LegendNANA
15:00 15.4 -2.0 30 LegendMM LegendMM   99.85     LegendNANA
16:00 14.5 -2.8 30 LegendMM LegendMM   99.85     LegendNANA
17:00 13.6 -2.5 33 LegendMM LegendMM   99.88     LegendNANA
18:00 11.5 -1.1 42 LegendMM LegendMM   99.93     LegendNANA
19:00 9.1 -0.7 50 LegendMM LegendMM   99.99     LegendNANA
20:00 7.7 0.1 58 LegendMM LegendMM   100.04     LegendNANA
21:00 7.1 0.4 62 LegendMM LegendMM   100.07     LegendNANA
22:00 6.5 0.5 66 LegendMM LegendMM   100.08     LegendNANA
23:00 5.4 -0.2 67 LegendMM LegendMM   100.09     LegendNANA

Notes on Data Quality.

Legend

  • E = Estimated
  • M = Missing
  • NA = Not Available
  • ‡ = Partner data that is not subject to review by the National Climate Archives
Date modified: